New York JFK, NY

7:32 PM EST on November 12, 2019 (GMT -0500)
Kennedy International

Weather History for KJFK - October, 2019

Change the Weather History Date:

Monday, October 21, 2019

  Actual Average Record
Temperature  
Mean Temperature 60 °F 55 °F  
Max Temperature 68 °F 63 °F 81 °F (1963)
Min Temperature 51 °F 48 °F 32 °F (1974)
Degree Days  
Heating Degree Days 6 10  
Month to date heating degree days 124 146  
Since 1 July heating degree days 135 185  
Cooling Degree Days 0 0  
Month to date cooling degree days 23 12  
Year to date cooling degree days 1152 1003  
Growing Degree Days 10 (Base 50)    
Moisture  
Dew Point 51 °F    
Average Humidity 79    
Maximum Humidity 100    
Minimum Humidity 47    
Precipitation  
Precipitation 0.00 in 0.11 in 1.58 in (1988)
Month to date precipitation 2.92 2.51  
Year to date precipitation 40.67 34.97  
Sea Level Pressure  
Sea Level Pressure 30.06 in    
Wind  
Wind Speed 10 mph ()    
Max Wind Speed 20 mph    
Max Gust Speed 23 mph    
Visibility 10.0 miles    
Events      
T = Trace of Precipitation, MM = Missing Value Source: Averaged Metar Reports

Daily Weather History Graph

Daily Weather History Graph

Search for Another Location

Airport or City:

Astronomy

Oct. 21, 2019 Rise Set
Actual Time 7:12 AM EDT 6:06 PM EDT
Civil Twilight 6:44 AM EDT 6:34 PM EDT
Nautical Twilight 6:12 AM EDT 7:05 PM EDT
Astronomical Twilight 5:41 AM EDT 7:37 PM EDT
Moon No Moon Rise 2:29 PM EDT (10/21)
Length of Visible Light 11h 49m
Length of Day
10h 53m
Waning Gibbous, 48% of the Moon is Illuminated
Oct 21
Waning Gibbous
Oct 27
New
Nov 4
First Quarter
Nov 12
Full
Nov 19
Last Quarter

Hourly Weather History & Observations

Time (EDT) Temp. Dew Point Humidity Pressure Visibility Wind Dir Wind Speed Gust Speed Precip Events Conditions
12:51 AM 53.1 °F 53.1 °F 100% 29.97 in 10.0 mi NNE 12.7 mph - N/A   Overcast
1:51 AM 53.1 °F 53.1 °F 100% 29.98 in 10.0 mi NNE 13.8 mph - N/A   Overcast
2:16 AM 53.1 °F 52.0 °F 96% 29.96 in 10.0 mi NNE 17.3 mph - N/A   Overcast
2:51 AM 53.1 °F 52.0 °F 96% 29.97 in 10.0 mi NNE 13.8 mph - N/A   Mostly Cloudy
3:51 AM 53.1 °F 51.1 °F 93% 29.98 in 10.0 mi NNE 12.7 mph - N/A   Overcast
8:51 AM 55.0 °F 50.0 °F 83% 30.06 in 10.0 mi North 11.5 mph - N/A   Clear
9:51 AM 57.9 °F 48.9 °F 72% 30.06 in 10.0 mi NNE 13.8 mph - N/A   Clear
10:51 AM 61.0 °F 48.9 °F 64% 30.07 in 10.0 mi NE 13.8 mph - N/A   Partly Cloudy
11:51 AM 63.0 °F 48.0 °F 58% 30.07 in 10.0 mi NNE 15.0 mph - N/A   Partly Cloudy
12:51 PM 64.0 °F 46.0 °F 52% 30.07 in 10.0 mi NNE 15.0 mph 20.7 mph N/A   Partly Cloudy
1:51 PM 66.0 °F 46.0 °F 48% 30.06 in 10.0 mi North 8.1 mph - N/A   Partly Cloudy
2:51 PM 66.9 °F 46.0 °F 47% 30.05 in 10.0 mi East 6.9 mph - N/A   Scattered Clouds
3:51 PM 66.9 °F 46.0 °F 47% 30.07 in 10.0 mi East 9.2 mph - N/A   Scattered Clouds
4:51 PM 63.0 °F 54.0 °F 72% 30.09 in 10.0 mi SSE 10.4 mph - N/A   Scattered Clouds
5:51 PM 60.1 °F 53.1 °F 78% 30.09 in 10.0 mi SE 5.8 mph - N/A   Scattered Clouds
6:51 PM 57.9 °F 53.1 °F 84% 30.11 in 10.0 mi SE 4.6 mph - N/A   Partly Cloudy
7:51 PM 57.0 °F 53.1 °F 87% 30.10 in 10.0 mi Calm Calm - N/A   Partly Cloudy
8:51 PM 55.0 °F 53.1 °F 93% 30.12 in 10.0 mi Calm Calm - N/A   Scattered Clouds
9:51 PM 55.9 °F 53.1 °F 90% 30.13 in 10.0 mi Calm Calm - N/A   Scattered Clouds
10:51 PM 53.1 °F 52.0 °F 96% 30.14 in 10.0 mi NE 4.6 mph - N/A   Mostly Cloudy
11:51 PM 53.1 °F 52.0 °F 96% 30.14 in 10.0 mi ENE 8.1 mph - N/A   Mostly Cloudy